[[{"header":{"parameterUnit":"m.s-1","parameterCategory":1,"la1":30.2991,"la2":30.254,"lo1":-89.0895,"lo2":-89.0444,"dy":0.0017,"dx":0.0017,"nx":28,"ny":28,"refTime":"2025-05-17T21:00:00:Z","depth":0,"parameterNumber":2,"parameterNumberName":"U-component_of_WINDS"},"data":[0,0,0,0,0,0,0,0,0,0,0,0,0,0,0,0,0,0,0,0,0,0,0,0,0,0,0,0,0,0,0,0,0,0,0,0,0,0,0,0,0,0,0,0,0,0,0,0,0,0,0,0,0,0,0,0,0,0,1.8985,1.8986,0,1.908,1.9081,1.9082,1.906,1.9058,1.9056,1.9054,1.9153,1.9158,1.9162,0,0,0,0,0,0,0,0,0,0,0,0,0,1.8786,1.879,1.8985,1.8986,1.8987,1.9079,1.9081,1.9082,1.906,1.9058,1.9056,1.9054,1.9152,1.9157,1.9162,0,0,0,0,0,0,0,0,0,0,0,0,0,1.8876,1.8791,1.8985,1.8987,1.8988,1.9079,1.9081,1.9082,1.906,1.9058,1.9055,1.9053,1.915,1.9156,1.9163,1.9257,0,0,1.9183,1.9185,0,0,0,0,0,0,0,0,1.8871,1.8883,1.8986,1.8987,1.8989,1.9055,1.9047,1.9141,1.9061,1.9033,1.9054,1.9051,1.9123,1.9131,1.9155,1.9262,1.9266,1.9183,1.9187,1.919,1.9192,0,0,0,0,0,0,0,1.8864,1.8879,1.9022,1.8987,1.8989,1.8984,1.8994,1.9065,1.9092,1.9035,1.9034,1.9045,1.9123,1.9149,1.9157,1.9268,1.9183,1.9189,1.9193,1.9195,1.9455,1.9458,0,0,0,0,0,0,1.8857,1.8874,1.9019,1.9025,1.8922,1.899,1.9001,1.9037,1.9091,1.9097,1.9048,1.9044,1.9139,1.915,1.9161,1.9274,1.919,1.9196,1.92,1.9452,1.9455,1.9459,0,0,0,0,0,0,1.8853,1.887,1.9015,1.8949,1.8967,1.8996,1.9037,1.904,1.9066,1.9101,1.9106,1.9069,1.9138,1.9152,1.9233,1.9277,1.9199,1.9205,1.9448,1.9453,1.9457,1.9501,0,0,0,0,0,0,1.8847,1.8869,1.8905,1.895,1.8971,1.9086,1.9039,1.9044,1.9077,1.9073,1.9122,1.9127,1.9137,1.9223,1.9239,1.9284,1.921,1.9444,1.945,1.9456,1.9495,1.9506,1.9515,0,0,0,0,0,1.884,1.8914,1.8906,1.8924,1.9016,1.9088,1.91,1.9109,1.908,1.9116,1.9139,1.9126,1.927,1.9232,1.925,1.9297,1.9442,1.9449,1.9455,1.9491,1.9504,1.9515,0,0,0,0,0,0,1.8874,1.892,1.8912,1.9003,1.9042,1.9085,1.9131,1.9123,1.9171,1.9165,1.9175,1.9186,1.9268,1.9291,1.9248,1.9391,1.9352,1.9362,1.9373,1.9385,1.9395,1.9387,1.9215,0,0,0,0,0,1.8891,1.8946,1.8983,1.906,1.908,1.9102,1.9134,1.9137,1.9177,1.9194,1.9222,1.9263,1.9317,1.9353,1.9405,1.9499,1.9509,1.954,1.955,1.9558,1.9567,1.9617,1.9631,1.9481,1.9481,1.9481,0,0,1.8929,1.8961,1.8995,1.9067,1.9098,1.9153,1.9116,1.9177,1.9218,1.9204,1.9281,1.9304,1.9349,1.9437,1.9477,1.9459,1.9611,1.9567,1.9573,1.9577,1.9625,1.964,1.9652,1.9485,1.9485,1.9484,0,0,1.9026,1.9056,1.9122,1.9153,1.9199,1.9213,1.9229,1.9273,1.9287,1.9365,1.9355,1.9405,1.9498,1.9531,1.9559,1.9668,1.9657,1.9684,1.9736,1.9785,1.9796,1.9807,1.9844,1.9858,1.9693,1.9693,1.9694,0,1.9067,1.915,1.9157,1.9219,1.9251,1.9239,1.9306,1.9336,1.9397,1.9419,1.9397,1.9513,1.9544,1.9638,1.9664,1.9689,1.9706,1.9678,1.9794,1.9805,1.9815,1.985,1.9864,1.9696,1.9696,1.9696,1.9695,0,1.9197,1.9255,1.9303,1.9361,1.9399,1.9463,1.948,1.9517,1.9517,1.9533,1.9612,1.9648,1.9706,1.9729,1.973,1.9824,1.981,1.9792,1.9752,1.9832,1.9865,1.9879,1.9701,1.9699,1.9699,1.9698,0,0,1.9318,1.9378,1.9396,1.9421,1.9471,1.9516,1.958,1.9636,1.9667,1.9709,1.9762,1.9841,1.9823,1.9856,1.986,1.9904,1.9985,1.9879,1.988,1.9896,2.0089,2.0102,2.0118,1.9979,1.9981,1.9984,2.0085,0,1.9418,1.9528,1.9536,1.9636,1.9689,1.9679,1.9734,1.977,1.9788,1.9835,1.9855,1.991,1.9883,1.9902,1.9944,1.9966,2.0024,1.9959,2.0028,2.003,2.0015,2.0135,2.015,2.0243,2.0098,2.01,2.0102,0,1.9549,1.9594,1.9699,1.974,1.9763,1.9812,1.9863,1.991,1.9951,1.996,1.9996,1.9994,2.0059,2.0018,2.0107,2.0063,2.0092,2.0107,2.0111,2.0117,2.007,2.0143,2.0274,2.0287,2.0123,2.0121,2.012,0,1.9624,1.9712,1.9785,1.9808,1.9858,1.9893,1.9916,1.9954,1.9987,2.0032,2.0053,2.0106,2.0134,2.0175,2.0188,2.0157,2.0276,2.0237,2.0285,2.0285,2.031,2.0308,2.0445,2.0331,2.0331,2.033,2.033,0,1.9734,1.9799,1.982,1.9865,1.9936,1.9945,2.0016,2.0037,2.0071,2.012,2.0115,2.0161,2.0175,2.0224,2.0234,2.0306,2.0319,2.0328,2.033,2.0328,2.0327,2.0346,2.0339,2.0334,2.0333,2.0332,2.0332,0,1.983,1.9847,1.9926,1.9967,1.9979,2.003,2.0064,2.0108,2.0124,2.0186,2.0201,2.0226,2.0283,2.03,2.0369,2.0376,2.0459,2.0456,2.0445,2.0445,2.0492,2.0487,2.0646,2.0666,2.0539,2.054,2.0541,0,1.9898,1.9947,1.9993,2.0025,2.0049,2.0101,2.0134,2.0145,2.0179,2.0229,2.0267,2.0323,2.0368,2.0459,2.0484,2.0537,2.0534,2.0586,2.0541,2.0537,2.0533,2.0529,2.0533,2.0594,2.0595,2.0596,2.0597,0,2.0018,2.0023,2.0071,2.0121,2.0161,2.0201,2.024,2.0267,2.0283,2.0322,2.038,2.0415,2.0484,2.054,2.0593,2.0616,2.0609,2.0611,2.0624,2.0622,2.0613,2.0617,2.0466,2.0607,2.0606,2.0605,2.0605,2.0604,2.0101,2.0143,2.0182,2.0234,2.0265,2.0301,2.0343,2.0364,2.0412,2.0469,2.0473,2.0535,2.0574,2.0644,2.0671,2.0719,2.0704,2.0725,2.073,2.0734,2.0737,2.0606,2.0729,2.0729,2.0729,2.0729,2.0729,0,2.0218,2.0242,2.0291,2.0345,2.0386,2.0376,2.0418,2.0453,2.0508,2.0545,2.0589,2.0655,2.0708,2.0737,2.079,2.0824,2.0822,2.0837,2.0834,2.084,2.0748,2.073,2.0838,2.0838,2.0838,2.0838,2.0838,2.0838,2.0284,2.0355,2.0365,2.045,2.0474,2.0534,2.0559,2.0592,2.0622,2.0695,2.0739,2.0757,2.0791,2.0846,2.0895,2.0902,2.0921,2.0939,2.0944,2.0858,2.0846,2.0836,2.0819,2.0943,2.0943,2.1031,2.1031,2.1032]},{"header":{"parameterUnit":"m.s-1","parameterCategory":1,"la1":30.2991,"la2":30.254,"lo1":-89.0895,"lo2":-89.0444,"dy":0.0017,"dx":0.0017,"nx":28,"ny":28,"refTime":"2025-05-17T21:00:00:Z","depth":0,"parameterNumber":3,"parameterNumberName":"V-component_of_WINDS"},"data":[0,0,0,0,0,0,0,0,0,0,0,0,0,0,0,0,0,0,0,0,0,0,0,0,0,0,0,0,0,0,0,0,0,0,0,0,0,0,0,0,0,0,0,0,0,0,0,0,0,0,0,0,0,0,0,0,0,0,3.7547,3.7548,0,3.7569,3.757,3.757,3.7531,3.753,3.7528,3.7527,3.7547,3.7549,3.7551,0,0,0,0,0,0,0,0,0,0,0,0,0,3.7469,3.747,3.7547,3.7548,3.7548,3.7569,3.757,3.757,3.7531,3.753,3.7528,3.7527,3.7547,3.7549,3.7551,0,0,0,0,0,0,0,0,0,0,0,0,0,3.7498,3.7471,3.7547,3.7531,3.753,3.7569,3.757,3.757,3.7532,3.753,3.7528,3.7526,3.7546,3.7549,3.7551,3.7607,0,0,3.7559,3.756,0,0,0,0,0,0,0,0,3.7496,3.7501,3.7533,3.7532,3.7531,3.7546,3.7549,3.7582,3.7532,3.7531,3.7527,3.7525,3.7548,3.755,3.7559,3.7607,3.7608,3.7559,3.7561,3.7562,3.7563,0,0,0,0,0,0,0,3.7494,3.75,3.7556,3.7534,3.7532,3.7522,3.7524,3.7555,3.755,3.7531,3.7528,3.7531,3.7547,3.7556,3.7559,3.7609,3.7559,3.7562,3.7563,3.7564,3.7704,3.7706,0,0,0,0,0,0,3.7495,3.7498,3.7555,3.7557,3.7509,3.7525,3.7527,3.7543,3.755,3.7549,3.7533,3.7529,3.7553,3.7556,3.756,3.7625,3.7562,3.7565,3.7566,3.7702,3.7704,3.7706,0,0,0,0,0,0,3.7493,3.75,3.7554,3.7527,3.7533,3.7528,3.7546,3.7544,3.7553,3.7551,3.755,3.7544,3.7551,3.7556,3.7595,3.7625,3.7566,3.7568,3.7699,3.7702,3.7705,3.7756,0,0,0,0,0,0,3.7491,3.75,3.7521,3.7528,3.7535,3.7591,3.7548,3.7546,3.7558,3.7554,3.7561,3.756,3.755,3.7592,3.7598,3.7627,3.757,3.7696,3.7701,3.7704,3.7752,3.776,3.7768,0,0,0,0,0,3.7488,3.7534,3.7523,3.753,3.7562,3.7592,3.7596,3.7585,3.7561,3.7582,3.7581,3.756,3.7621,3.7596,3.7603,3.7634,3.7694,3.7699,3.7704,3.7748,3.7759,3.7768,0,0,0,0,0,0,3.7531,3.7535,3.7522,3.7571,3.7582,3.7586,3.7612,3.7596,3.7613,3.7608,3.7592,3.7594,3.7637,3.7639,3.7611,3.7687,3.7653,3.766,3.7685,3.7695,3.7703,3.7701,3.7572,0,0,0,0,0,3.7546,3.7572,3.7573,3.7617,3.7623,3.7617,3.763,3.762,3.763,3.7634,3.7635,3.7645,3.7666,3.7681,3.77,3.7752,3.7752,3.7776,3.7785,3.7791,3.7797,3.7824,3.7835,3.7722,3.7722,3.7722,0,0,3.7577,3.7583,3.7599,3.7625,3.7632,3.7658,3.7621,3.765,3.7669,3.7638,3.7676,3.7677,3.7687,3.7733,3.7753,3.7736,3.7828,3.7797,3.7803,3.7805,3.783,3.7841,3.785,3.7725,3.7725,3.7724,0,0,3.7648,3.7655,3.7691,3.77,3.7711,3.7707,3.7716,3.7723,3.7723,3.776,3.7738,3.776,3.7797,3.7805,3.7814,3.7888,3.7869,3.7895,3.7937,3.7964,3.7973,3.7981,3.8007,3.8017,3.79,3.79,3.79,0,3.7685,3.7724,3.7712,3.7743,3.7755,3.7729,3.7766,3.7774,3.7791,3.78,3.7781,3.7827,3.7832,3.7879,3.7897,3.7905,3.7914,3.7894,3.7973,3.7981,3.7988,3.8013,3.8023,3.7903,3.7903,3.7903,3.7902,0,3.7769,3.7797,3.7825,3.7844,3.7859,3.7892,3.7885,3.7901,3.789,3.7888,3.7926,3.7931,3.7951,3.7962,3.7951,3.8008,3.7997,3.7976,3.7941,3.8002,3.8025,3.8034,3.7908,3.7907,3.7906,3.7905,0,0,3.7866,3.7878,3.7889,3.7897,3.7908,3.7929,3.7961,3.7982,3.7996,3.8009,3.8035,3.8068,3.8048,3.8058,3.8048,3.8072,3.813,3.8048,3.8048,3.8063,3.8193,3.8209,3.822,3.8118,3.812,3.8121,3.8192,0,3.7937,3.7994,3.7984,3.8039,3.8064,3.804,3.8069,3.8078,3.8077,3.8097,3.8095,3.8119,3.8091,3.8097,3.812,3.8118,3.8156,3.8113,3.8142,3.8143,3.814,3.8232,3.8249,3.8315,3.8201,3.8202,3.8204,0,3.8026,3.8043,3.8101,3.8109,3.8119,3.8145,3.8163,3.8183,3.8193,3.819,3.8202,3.8188,3.8219,3.8185,3.8228,3.8199,3.821,3.8211,3.8213,3.8215,3.8177,3.8236,3.8336,3.8346,3.8218,3.8217,3.8216,0,3.8091,3.8128,3.8168,3.8176,3.8186,3.8204,3.8209,3.8217,3.823,3.8246,3.8254,3.8273,3.8283,3.8298,3.8288,3.8264,3.8333,3.8298,3.8331,3.8331,3.8346,3.8345,3.8449,3.8354,3.8354,3.8354,3.8354,0,3.817,3.8206,3.8198,3.8222,3.8262,3.825,3.8289,3.8291,3.8299,3.8322,3.8303,3.8325,3.8312,3.8333,3.8326,3.8362,3.8367,3.8365,3.8363,3.8367,3.8367,3.8374,3.8369,3.8356,3.8356,3.8355,3.8355,0,3.8249,3.8245,3.8286,3.8293,3.8295,3.8324,3.8329,3.8351,3.8349,3.8379,3.8386,3.8381,3.8405,3.8398,3.8423,3.8418,3.8465,3.8456,3.8462,3.846,3.8493,3.849,3.8605,3.8619,3.8515,3.8516,3.8517,0,3.83,3.8328,3.8337,3.8352,3.8359,3.8383,3.8397,3.8386,3.8401,3.8415,3.8435,3.8458,3.8475,3.8514,3.8513,3.8532,3.8524,3.8563,3.8527,3.853,3.8524,3.8523,3.8525,3.857,3.8571,3.8572,3.8573,0,3.839,3.8387,3.8408,3.8429,3.8446,3.8461,3.8474,3.8487,3.8477,3.8495,3.852,3.8533,3.856,3.8582,3.86,3.8604,3.8587,3.8585,3.8593,3.8598,3.86,3.8599,3.8481,3.8582,3.8581,3.858,3.858,3.858,3.8457,3.848,3.8491,3.8515,3.8524,3.8537,3.8559,3.8559,3.858,3.8602,3.8594,3.8622,3.8631,3.8654,3.866,3.8681,3.8666,3.8679,3.8682,3.8685,3.869,3.8597,3.8685,3.8684,3.8684,3.8684,3.8684,0,3.8546,3.8552,3.8574,3.8594,3.8613,3.8597,3.8611,3.8627,3.8653,3.8663,3.8681,3.871,3.8731,3.8732,3.8752,3.8769,3.8762,3.8775,3.8773,3.8774,3.8702,3.8693,3.878,3.878,3.878,3.878,3.878,3.878,3.8595,3.8634,3.8632,3.8675,3.868,3.8709,3.8718,3.873,3.8738,3.8771,3.879,3.8791,3.8797,3.8817,3.8836,3.8836,3.8844,3.886,3.8857,3.8789,3.8779,3.877,3.8761,3.8862,3.8862,3.8927,3.8927,3.8928]}]]